#timestamp,LO_Frequency,Hit,StdDev 
1701745215.1,286047000.8,N
1701745216.0,286047000.8,N
1701745235.8,286046998.2,N
1701745255.6,286047001.1,N
1701745275.5,286046998.4,N
1701745295.3,286047001.0,N
1701745315.1,286047001.9,N
1701745335.9,286047002.1,N
1701745355.7,286047002.6,N
1701745375.5,286047002.2,N
1701745395.4,286047001.5,N
1701745415.2,286047001.7,N
1701745435.0,286047003.6,N
1701745435.9,286047003.6,N
1701745455.8,286047003.9,N
1701745475.6,286047004.3,N
1701745495.4,286047003.4,N
1701745515.3,286047004.1,N
1701745535.1,286047005.7,N
1701745555.8,286047005.5,N
1701745575.7,286047006.0,N
1701745595.5,286047001.5,N
1701745615.3,286047003.5,N
1701745635.2,286047005.9,N
1701745655.0,286047003.1,N
1701745655.9,286047003.1,N
1701745675.7,286047003.5,N
1701745695.6,286047003.1,N
1701745715.4,286047004.2,N
1701745735.2,286047003.7,N
1701745755.1,286047004.0,N
1701745756.0,286047004.0,N
1701745775.8,286047005.4,N
1701745795.6,286047005.8,Y
1701745815.5,286047002.2,P
1701745835.3,286047000.5,N
1701745855.1,286047002.4,N
1701745875.9,286046999.7,N
1701745895.7,286047001.9,N
1701745915.5,286047003.6,N
1701745935.4,286047001.3,N
1701745955.2,286047004.1,Y
1701745975.0,286047000.1,P
1701745975.9,286047000.1,N
1701745995.8,286047000.7,N
1701746015.6,286047001.1,N
1701746035.4,286046996.9,Y
1701746055.3,286046997.7,P
1701746075.1,286046997.8,N
1701746095.8,286046998.7,N
1701746115.7,286047000.1,N
1701746135.5,286047005.9,Y
1701746155.3,286047002.9,P
1701746175.2,286047002.1,N
1701746195.0,286046999.8,N
1701746195.9,286046999.8,N
1701746215.7,286047000.2,N
1701746235.6,286047000.3,N
1701746255.4,286047002.4,N
1701746275.2,286047002.2,N
1701746295.1,286047003.9,N
1701746296.0,286047003.9,N
1701746315.8,286047003.9,N
1701746335.6,286047003.0,N
1701746355.5,286047005.2,Y
1701746375.3,286047002.4,P
1701746395.1,286047000.6,N
1701746415.9,286046999.1,N
1701746435.7,286046997.4,N
1701746455.5,286046995.6,N
1701746475.4,286046993.3,N
1701746495.2,286046993.8,N
1701746515.0,286046996.3,N
1701746515.9,286046996.3,N
1701746535.8,286046997.1,N
1701746555.6,286047002.6,N
1701746575.4,286047002.4,N
1701746595.3,286047000.4,N
1701746615.1,286047002.6,N
1701746635.8,286047004.1,N
1701746655.7,286047006.8,N
1701746675.5,286047010.8,N
1701746695.3,286047012.0,N
1701746715.2,286047012.0,N
1701746735.0,286047011.2,N
1701746735.9,286047011.2,N
1701746755.7,286047012.8,N
1701746775.6,286047013.0,N
1701746795.4,286047012.8,N
1701746815.2,286047014.9,N
1701746835.1,286047012.0,N
1701746836.0,286047012.0,N
1701746855.8,286047007.7,N
1701746875.6,286047011.8,N
1701746895.5,286047013.5,N
1701746915.3,286047013.3,N
1701746935.1,286047011.2,N
1701746955.9,286047013.7,N
1701746975.7,286047014.0,N
1701746995.5,286047011.3,N
1701747015.4,286047013.9,N
1701747035.2,286047012.0,N
1701747055.0,286047011.7,N
1701747055.9,286047011.7,N
1701747075.8,286047012.0,N
1701747095.6,286047013.9,Y
1701747115.4,286047004.3,P
1701747135.3,286047004.3,N
1701747155.1,286047001.9,N
1701747175.8,286047000.6,N
1701747195.7,286047002.2,N
1701747215.5,286047003.9,N
1701747235.3,286047003.8,N
1701747255.2,286047002.7,N
1701747275.0,286047002.2,N
1701747275.9,286047002.2,N
1701747295.7,286047002.3,N
1701747315.6,286047001.6,N
1701747335.4,286047000.3,N
1701747355.2,286046999.7,N
1701747375.1,286047000.2,N
1701747376.0,286047000.2,N
1701747395.8,286047001.1,N
1701747415.6,286046996.5,N
1701747435.5,286046999.1,N
1701747455.3,286046998.5,N
1701747475.1,286046998.1,N
1701747495.9,286047002.7,N
1701747515.7,286047001.1,N
1701747535.5,286047001.6,N
1701747555.4,286047004.2,N
1701747575.2,286047001.6,N
1701747595.0,286047001.7,N
1701747595.9,286047001.7,N
1701747615.8,286047004.1,N
1701747635.6,286047003.8,N
1701747655.4,286047004.7,N
1701747675.3,286047003.9,N
1701747695.1,286047003.5,N
1701747715.8,286047003.6,N
1701747735.7,286047001.4,N
1701747755.5,286047004.2,N
1701747775.3,286047004.9,N
1701747795.2,286047003.2,N
1701747815.0,286047002.5,N
1701747815.9,286047002.5,N
1701747835.7,286046999.0,N
1701747855.6,286046994.5,N
1701747875.4,286046992.0,Y
1701747895.2,286046988.5,P
1701747915.1,286046989.7,N
1701747916.0,286046989.7,N
1701747935.8,286046986.9,N
1701747955.6,286046985.5,N
1701747975.5,286046982.5,Y
1701747995.3,286046990.9,P
1701748015.1,286046991.4,P
1701748035.9,286046985.7,P
1701748055.7,286046984.1,Y
1701748075.6,286046997.9,P
1701748095.4,286046999.1,N
1701748115.2,286046999.1,N
1701748135.0,286047000.9,N
1701748136.0,286047000.9,N
1701748155.8,286047000.8,N
1701748175.6,286047001.1,N
1701748195.5,286047000.7,N
1701748215.3,286046999.1,N
1701748235.1,286046999.4,N
1701748255.9,286046996.6,N
1701748275.7,286046999.4,N
1701748295.5,286046996.5,N
1701748315.3,286046996.5,N
1701748335.2,286046999.4,N
1701748355.0,286046999.1,N
1701748355.9,286046999.1,N
1701748375.8,286046999.4,N
1701748395.6,286046998.1,N
1701748415.4,286047002.4,N
1701748435.3,286047002.5,N
1701748455.1,286046999.7,N
1701748456.0,286046999.7,N
1701748475.8,286047001.9,N
1701748495.7,286047000.9,N
1701748515.5,286046998.1,N
1701748535.3,286047000.9,N
1701748555.2,286047000.3,N
1701748575.9,286047000.5,N
1701748595.7,286047001.2,N
1701748615.6,286046999.8,N
1701748635.4,286047002.5,N
1701748655.2,286047001.4,N
1701748675.1,286047001.8,N
1701748676.0,286047001.8,N
1701748695.8,286047001.4,N
1701748715.6,286047001.5,N
1701748735.5,286047002.2,N
1701748755.3,286047003.9,N
1701748775.1,286047003.4,N
1701748795.9,286047005.1,N
